DW2103 Weather Reports


time (UTC)temp
F
wind
direction
speed
knots
gust
knots
rain 1hr
in
rain 24hr
in
rain mn
in
humidity
%
barometer
mb
20260503054515 53 157 0.0 0.0 0.00 0.00 0.00 69 1010.4
20260503053017 53 184 0.9 0.0 0.00 0.00 0.00 67 1010.0
20260503051511 54 254 0.0 0.0 0.00 0.00 0.00 65 1010.0
20260503050011 54 263 0.9 0.0 0.00 0.00 0.00 64 1010.6
20260503044511 56 327 0.9 0.0 0.00 0.00 0.00 59 1010.0
20260503043011 58 295 0.9 0.0 0.00 0.00 0.00 56 1009.3
20260503041510 59 355 1.7 0.0 0.00 0.00 0.00 50 1009.3
20260503040023 60 320 0.9 0.0 0.00 0.00 0.00 53 1010.2
20260503034511 60 9 1.7 0.0 0.00 0.00 0.00 42 1010.3
20260503033008 60 340 2.6 0.0 0.00 0.00 0.00 45 1010.3
20260503031508 60 300 2.6 0.0 0.00 0.00 0.00 47 1010.2
20260503030007 61 22 1.7 0.0 0.00 0.00 0.00 45 1011.2
20260503024506 62 13 0.9 0.0 0.00 0.00 0.00 44 1010.6
20260503023006 63 19 1.7 0.0 0.00 0.00 0.00 38 1010.2
20260503021510 64 10 0.9 0.0 0.00 0.00 0.00 35 1009.8
20260503020005 64 28 1.7 0.0 0.00 0.00 0.00 34 1010.8
20260503014504 65 321 1.7 0.0 0.00 0.00 0.00 34 1010.7
20260503013004 65 13 1.7 0.0 0.00 0.00 0.00 35 1010.8
20260503011510 66 330 0.0 0.0 0.00 0.00 0.00 34 1010.5
20260503010003 66 14 0.0 0.0 0.00 0.00 0.00 34 1010.6
20260503004503 67 5 1.7 0.0 0.00 0.00 0.00 32 1010.5
20260503003004 69 5 0.9 0.0 0.00 0.00 0.00 32 1009.6
20260503001502 70 219 0.0 0.0 0.00 0.00 0.00 34 1009.1
20260503000001 70 182 1.7 0.0 0.00 0.00 0.00 32 1009.0
20260502234503 71 82 0.9 0.0 0.00 0.00 0.00 30 1008.8
20260502233001 71 205 1.7 0.0 0.00 0.00 0.00 26 1008.9
20260502231601 70 258 1.7 0.0 0.00 0.00 0.00 28 1008.9
20260502230100 71 180 1.7 0.0 0.00 0.00 0.00 28 1008.8
20260502224559 72 144 1.7 0.0 0.00 0.00 0.00 29 1008.7
20260502223059 72 88 0.9 0.0 0.00 0.00 0.00 26 1008.8
20260502221559 73 252 2.6 0.0 0.00 0.00 0.00 23 1009.2
20260502220142 73 192 1.7 0.0 0.00 0.00 0.00 26 1009.0
20260502214557 74 161 0.9 0.0 0.00 0.00 0.00 28 1009.3
20260502213103 73 154 0.9 0.0 0.00 0.00 0.00 25 1009.3
20260502211556 74 142 0.9 0.0 0.00 0.00 0.00 28 1009.4
20260502204605 73 266 0.0 0.0 0.00 0.00 0.00 26 1009.7
20260502203103 73 154 0.9 0.0 0.00 0.00 0.00 24 1009.7
20260502201551 73 300 0.0 0.0 0.00 0.00 0.00 25 1009.8
20260502200050 73 94 0.9 0.0 0.00 0.00 0.00 26 1009.5
20260502194553 72 92 0.0 0.0 0.00 0.00 0.00 26 1009.9
20260502193046 72 98 0.0 0.0 0.00 0.00 0.00 26 1010.1
20260502191544 71 200 0.0 0.0 0.00 0.00 0.00 30 1010.3
20260502190047 71 211 0.9 0.0 0.00 0.00 0.00 29 1010.0
20260502184542 70 248 0.9 0.0 0.00 0.00 0.00 29 1010.1
20260502183050 70 170 0.9 0.0 0.00 0.00 0.00 30 1010.5
20260502181539 70 186 0.0 0.0 0.00 0.00 0.00 31 1010.6
20260502163040 62 208 0.0 0.0 0.00 0.00 0.00 39 1011.1
20260502161513 60 208 0.0 0.0 0.00 0.00 0.00 42 1011.5
20260502151620 52 334 0.0 0.0 0.00 0.00 0.00 53 1012.6
20260502150105 50 329 0.0 0.0 0.00 0.00 0.00 54 1012.5
20260502130103 43 340 0.0 0.0 0.00 0.00 0.00 63 1010.8
20260502123057 44 282 0.0 0.0 0.00 0.00 0.00 58 1010.6
20260502121547 44 270 0.0 0.0 0.00 0.00 0.00 57 1010.9
20260502114548 45 275 0.0 0.0 0.00 0.00 0.00 55 1010.7
20260502113041 45 280 0.0 0.0 0.00 0.00 0.00 54 1010.6
20260502111546 45 279 0.0 0.0 0.00 0.00 0.00 54 1010.7
20260502110042 45 277 0.0 0.0 0.00 0.00 0.00 54 1010.7
20260502104538 45 278 0.0 0.0 0.00 0.00 0.00 53 1010.7
20260502103038 45 279 0.0 0.0 0.00 0.00 0.00 53 1010.7
20260502101534 46 277 0.0 0.0 0.00 0.00 0.00 54 1010.7
20260502091526 48 276 0.0 0.0 0.00 0.00 0.00 47 1010.5
20260502071509 53 281 0.0 0.0 0.00 0.00 0.00 38 1010.8